Regional Weather Roundup
Issued by NWS

Home | Current Version | Previous Version | Graphics & Text | Print | Product List | Glossary Off
Versions: 1 2 3 4 5 6 7 8 9 10 11 12 13 14 15 16 17 18 19 20 21 22 23 24 25 26 27 28 29 30 31 32 33 34 35 36 37 38 39 40 41 42 43 44 45 46 47 48 49 50

000
ASUS43 KMKX 231600
RWRWI

WISCONSIN REGIONAL WEATHER ROUNDUP
NATIONAL WEATHER SERVICE MILWAUKEE/SULLIVAN WI
1100 AM CDT WED APR 23 2014

NOTE: "FAIR" INDICATES FEW OR NO CLOUDS BELOW 12,000 FEET WITH NO
SIGNIFICANT WEATHER AND/OR OBSTRUCTIONS TO VISIBILITY.

WIZ001-002-006>008-014>016-023>028-231700-
NORTHWEST WISCONSIN

CITY           SKY/WX    TMP DP  RH WIND       PRES   REMARKS
SUPERIOR ARPT  PTSUNNY   40  30  65 NE7       30.15S
ASHLAND        CLOUDY    43  29  57 N5        30.16R
HAYWARD        PTSUNNY   48  24  39 S13       30.13S
SIREN          CLOUDY    46  25  44 SE9       30.12S
RICE LAKE      CLOUDY    46  28  50 SE14      30.15R
LADYSMITH      PTSUNNY   47  28  46 S8        30.15S
EAU CLAIRE     NOT AVBL
MENOMONIE      CLOUDY    47  27  45 E10       30.13R
NEW RICHMOND   CLOUDY    46  27  47 SE13      30.12R
OSCEOLA        CLOUDY    47  27  46 SE12      30.14R
$$

WIZ003>005-009-010-017-018-231700-
NORTH CENTRAL WISCONSIN

CITY           SKY/WX    TMP DP  RH WIND       PRES   REMARKS
WOODRUFF       PTSUNNY   47  24  40 SE7       30.13S
RHINELANDER    PTSUNNY   45  24  43 E9        30.14R
EAGLE RIVER    MOSUNNY   46  21  36 E8        30.13F
LAND O LAKES   MOSUNNY   45  24  43 E8        30.14F
PHILLIPS       CLOUDY    44  25  46 SE8       30.13F
TOMAHAWK       CLOUDY    44  24  45 CALM      30.15R
MEDFORD        PTSUNNY   43  25  50 SE7       30.14F
MERRILL        CLOUDY    44  26  48 CALM      30.15S
$$

WIZ029-030-035-036-043>047-231700-
CENTRAL WISCONSIN

CITY           SKY/WX    TMP DP  RH WIND       PRES   REMARKS
WAUSAU         PTSUNNY   45  24  43 E7        30.14S
MOSINEE        SUNNY     43  27  52 SE8       30.16F
MARSHFIELD     PTSUNNY   46  27  47 SE9       30.14F
STEVENS POINT  MOSUNNY   42  22  45 E8        30.18R
WAUPACA        MOSUNNY   46  27  46 SE7       30.19R
WAUTOMA        NOT AVBL
WISC RAPIDS    MOSUNNY   47  21  35 E8        30.17F
CAMP DOUGLAS   NOT AVBL
$$

WIZ011>013-019>022-031-037>040-048>050-231700-
NORTHEAST WISCONSIN

CITY           SKY/WX    TMP DP  RH WIND       PRES   REMARKS
ANTIGO         PTSUNNY   42  24  48 SE6       30.15S
STURGEON BAY   SUNNY     43  25  49 NW7       30.19S
GREEN BAY      PTSUNNY   43  24  47 E10G20    30.19S
MANITOWOC      NOT AVBL
APPLETON       PTSUNNY   43  23  45 NE7       30.19R
CLINTONVILLE   PTSUNNY   45  25  45 E5        30.19R
OSHKOSH        MOSUNNY   44  26  49 NE6       30.19R
$$

WIZ032>034-041-042-053>061-231700-
SOUTHWEST WISCONSIN

CITY           SKY/WX    TMP DP  RH WIND       PRES   REMARKS
LA CROSSE      CLOUDY    50  28  42 S12       30.13F
SPARTA         PTSUNNY   48  24  39 SE13      30.15F
VIROQUA        FAIR      46  28  50 SE7       30.14S
BOSCOBEL       PTSUNNY   49  27  42 VRB6      30.16F
PRAIRIE DU CHI CLOUDY    47  29  50 E7        30.15F
PLATTEVILLE    FAIR      46  28  51 SE7       30.17S
$$

WIZ056-057-062-063-064-067-068-231700-
SOUTH CENTRAL WISCONSIN

CITY           SKY/WX    TMP DP  RH WIND       PRES   REMARKS
BARABOO/DELLS  MOSUNNY   46  24  42 E6        30.16S
LONE ROCK      NOT AVBL
WATERTOWN      MOSUNNY   46  28  49 E8        30.16S
MADISON        PTSUNNY   46  24  42 SE6       30.17S
MIDDLETON      FAIR      47  23  38 E6        30.17F
MONROE         SUNNY     47  28  47 E9        30.15F
JANESVILLE     SUNNY    N/A N/A N/A E10       30.16F
$$

WIZ051-052-058>065-066-070>072-231700-
SOUTHEAST WISCONSIN

CITY           SKY/WX    TMP DP  RH WIND       PRES   REMARKS
MILWAUKEE      PTSUNNY   43  28  55 NE10      30.19S
WAUKESHA       NOT AVBL
MILWAUKEE/TIMM SUNNY     45  21  39 E6        30.19S
RACINE         SUNNY     44  28  53 NE8       30.19F
BURLINGTON     SUNNY     45  27  49 E12       30.17S
KENOSHA        SUNNY     44  26  49 E10       30.18F
FOND DU LAC    MOSUNNY   45  26  47 NE6       30.17F
SHEBOYGAN      MOSUNNY   43  24  47 E7        30.19R
WEST BEND      MOSUNNY   43  25  49 NE3       30.17F
JUNEAU         MOSUNNY   45  21  38 E6        30.18S
$$

LSZ147-162-231700-
LAKE SUPERIOR

STATION/POSITION TIME  TEMP    WIND        PRES    WAVE
                       AIR SEA DIR/SP/G            HT/PER
                 (UTC) (F)     (DEG/KT/KT) (MB)    (FT/S)
DEVILS ISLAND    1500   38     120/  6/  7 1021.8F
PORT WING        1500   32     320/  3/  3 1021.0S
SAXON HARBOR     1540           CALM  /  2 1020.7F
$$

LMZ867-665-643>646-231700-
LAKE MICHIGAN

STATION/POSITION TIME  TEMP    WIND        PRES    WAVE
                       AIR SEA DIR/SP/G            HT/PER
                 (UTC) (F)     (DEG/KT/KT) (MB)    (FT/S)
NORTHPORT PIER   1500   33     310/  7/  9 1022.7R
SISTER BAY       1509   38     350/ 12/ 13   N/A
KEWAUNEE LAKESHO 1500   40      60/  6/  8 1022.9S
SHEBOYGAN LAKESH 1500   37      20/ 12/ 13 1023.1R
PORT WASHINGTON  1540   40      50/  7/ 10 1023.0R
MILWAUKEE LAKESH 1500   38      40/  8/  9   N/A
KENOSHA   LAKESH 1500   37      40/  8/ 10   N/A
$$

TC  - TEMPERATURE IN CELSIUS
VSB - VISIBILITY IN STATUTE MILES
WCI - WIND CHILL INDEX
HX  - HEAT INDEX




USA.gov is the U.S. government's official web portal to all federal, state and local government web resources and services.